User: anonymous   Login
Location: Unspecified
(0.0000°N, 0.0000°E)
Time: 16:01:49
(UTC+01:00)
Language:

NOAA 12 - Orbit

View from above orbital plane
View from above orbital plane
View from above satellite
View from above satellite

Ground track
Ground track

The orbit data is extracted from the following two-line orbital elements,

1 21263U 91032A   17016.51097009 -.00000014  00000-0  12363-4 0  9990
2 21263  98.5775  43.8773 0013898   9.5656 350.5786 14.25832450335110
Epoch (UTC): 16 January 2017 12:15:47
Eccentricity: 0.0013898
inclination: 98.5775°
perigee height: 796 km
apogee height: 815 km
right ascension of ascending node: 43.8773°
argument of perigee: 9.5656°
revolutions per day: 14.25832450
mean anomaly at epoch: 350.5786°
orbit number at epoch: 33511

The dashed part of the orbit path shows where the satellite is in the earth's shadow,  

DLR